SCP
-0 0 -0 -0 0 0 0 0 0 0 0 0 0 1 1 1 0 0 0 0 0 0 0 0 0 0 0 0 0 0 0 0 0 0 0 0 0 0
0 0 0 0 0 0 0 0 0 0 0 0 0 0 0 0 0 0 0 -0 0 0 0 0 0 0 0 0 0 0 0 0 0 0 0 0 0 0
-0 0 0 0 0 0 0 0 0 0 0 0 0 1 1 0 0 0 0 0 0 0 0 0 0 0 0 0 0 0 0 0 0 0 0 0 0 0
0 0 0 0 1 1 0 1 1 1 0 1 0 1 0 0 0 0 0 0 0 0 0 0 0 0 0 0 0 0 0 0 0 0 0 0 0 0
1 1 1 1 1 1 1 1 1 0 0 0 0 0 0 0 0 0 0 0 0 0 0 0 0 0 0 0 0 0 0 0 0 0 0 0 0 0
2 2 2 3 3 3 2 2 2 2 1 0 0 0 0 0 0 0 0 0 0 0 0 0 0 0 0 0 0 0 0 0 0 0 0 0 0 0
2 2 2 2 2 3 3 3 3 2 1 0 0 0 0 0 0 0 0 0 0 0 0 0 0 0 0 0 0 0 0 0 0 0 0 0 0 0
2 3 2 2 2 2 2 3 3 3 2 1 1 0 0 0 0 0 0 0 0 0 0 0 0 0 0 0 0 0 0 0 0 0 0 0 0 0
3 2 2 1 2 3 1 0 1 1 1 0 0 0 0 0 0 0 0 0 0 0 0 0 0 0 0 0 0 0 0 0 0 0 0 0 0 0
2 2 2 2 2 1 2 1 1 0 0 0 0 0 0 0 0 0 0 -0 0 0 0 0 0 0 0 0 0 0 0 0 0 0 0 0 0 0
1 1 1 2 1 0 1 2 0 0 0 0 0 0 0 0 0 0 0 0 0 0 0 0 0 0 0 0 0 0 0 0 0 0 0 0 0 0
1 1 1 0 0 0 1 1 0 0 0 0 0 0 0 0 0 0 0 0 0 0 0 0 0 0 0 0 0 0 0 0 0 0 0 0 0 0
0 0 1 0 0 0 0 0 0 0 0 0 0 0 0 0 0 0 0 0 0 0 0 0 0 0 0 0 0 0 0 0 0 0 0 0 0 0
0 1 1 0 0 0 0 0 0 0 0 0 0 0 0 0 0 0 0 0 0 0 0 0 0 0 0 0 0 0 0 0 0 0 0 0 0 0
0 0 0 0 0 0 0 0 0 0 0 0 0 0 0 0 0 0 0 0 0 0 0 0 0 0 0 0 0 0 0 0 0 0 0 0 0 0
0 0 0 0 0 0 0 0 0 0 0 0 0 0 0 0 0 0 0 0 0 0 0 0 0 0 0 -0 0 0 0 0 0 0 0 0 0 0
-0 0 -0 0 0 0 0 0 0 0 0 0 0 0 0 0 0 0 0 0 0 0 0 0 0 0 -0 -0 0 0 0 0 0 0 0 0 0 0
-0 -0 0 0 0 0 0 0 0 -0 0 0 0 0 0 0 0 0 0 0 0 0 0 0 0 -0 0 0 0 0 0 0 0 0 0 0 0 0
-0 -0 0 0 0 0 0 0 0 0 0 0 0 0 0 0 0 0 0 0 0 0 0 0 0 0 0 0 0 0 0 0 0 0 0 0 0 0
-0 -0 0 0 0 0 0 0 0 0 0 0 0 0 0 0 0 0 0 0 0 0 0 0 0 0 0 0 0 0 0 0 0 0 0 0 0 0
0 0 0 0 0 0 0 0 0 0 0 0 0 0 0 0 0 0 0 0 0 0 0 0 0 0 0 0 0 0 0 0 0 0 0 0 0 0
0 0 0 0 0 0 0 0 0 0 0 0 0 0 0 0 0 0 0 0 0 0 0 0 0 0 0 0 0 0 0 0 0 0 0 0 -0 -0
0 0 0 0 0 0 0 0 0 0 0 0 0 0 0 0 0 0 0 0 0 0 0 0 -0 0 0 0 0 0 0 0 0 0 0 0 0 0
Wind_Speed_500mb
19 19 16 12 12 12 12 10 10 19 8 9 10 11 21 27 35 30 32 29 29 27 23 21 18 16 14 11 7 5 5 2 1 3 7 11 15 20
15 19 19 13 14 14 13 12 12 11 14 9 7 10 18 24 28 33 33 29 32 29 27 22 19 13 9 5 3 1 1 1 1 5 12 16 20 22
21 24 26 21 18 16 18 16 16 14 14 10 16 25 20 21 25 31 35 37 35 33 30 24 19 14 9 9 6 5 5 5 6 9 13 17 21 24
29 28 28 25 28 24 26 28 24 23 20 27 21 21 22 22 26 27 32 23 28 29 32 26 21 17 14 12 11 10 11 12 13 16 18 20 23 25
37 37 36 35 36 32 31 27 27 25 26 30 23 17 22 28 24 27 31 27 30 34 22 29 26 22 21 18 17 16 16 15 18 20 21 20 22 24
48 48 46 46 46 42 38 40 38 39 40 30 18 24 32 31 27 27 32 31 31 34 33 30 24 23 26 25 22 21 21 20 22 21 22 22 24 26
50 55 54 54 52 51 47 45 41 48 38 24 25 25 30 37 37 26 33 36 37 30 31 19 21 24 30 29 26 22 21 23 22 23 25 27 27 26
58 53 54 56 58 63 62 60 54 55 49 38 24 29 44 43 45 31 38 35 37 34 26 25 27 19 19 34 24 19 16 23 24 27 27 30 29 27
53 56 55 49 51 54 57 54 53 61 61 41 41 37 49 47 46 36 42 36 26 30 24 28 24 26 18 26 25 22 24 27 30 31 32 33 32 30
61 69 67 60 55 60 57 58 53 55 43 32 43 43 50 51 48 40 33 31 21 20 23 22 24 19 20 23 22 29 33 29 28 30 32 34 30 29
45 47 52 57 52 49 52 53 58 53 37 46 52 46 43 46 38 33 39 41 31 24 28 25 18 13 22 17 19 21 18 16 16 24 28 25 24 27
29 34 43 46 50 48 44 39 47 49 49 47 45 40 39 37 36 38 33 34 30 29 35 31 17 19 15 23 20 16 12 12 19 18 22 17 21 30
27 27 26 35 32 24 18 14 26 30 28 27 34 37 38 29 35 36 30 29 30 29 31 14 18 16 16 17 19 13 7 10 15 17 17 13 18 24
20 28 27 20 17 17 16 16 18 22 24 35 22 30 30 27 23 35 43 39 39 27 18 30 21 17 17 11 14 20 17 7 10 8 11 18 26 20
23 33 32 28 19 19 18 15 20 31 34 39 35 32 30 29 32 31 35 38 34 28 26 37 28 28 14 14 10 14 12 13 7 6 10 16 19 18
10 22 18 7 3 2 4 5 3 3 13 22 27 35 35 33 25 23 31 36 33 31 34 39 25 21 21 14 15 8 8 7 5 4 10 19 15 12
17 11 9 6 6 5 5 4 4 5 6 30 35 37 37 30 25 30 30 33 37 40 33 29 21 22 25 18 13 12 8 4 13 12 16 12 12 13
18 6 4 6 6 5 8 9 3 8 7 15 24 28 28 31 30 31 37 35 34 33 25 13 15 16 16 17 15 6 9 9 9 11 9 7 7 7
11 9 5 5 6 5 1 3 3 15 23 21 24 30 31 32 35 40 28 33 35 27 13 18 17 12 17 24 19 16 3 7 8 5 6 6 3 10
7 8 9 8 12 14 13 12 14 13 23 22 25 29 27 33 39 30 37 34 30 21 21 22 15 8 15 7 4 5 18 2 6 5 5 4 11 13
15 12 12 12 14 18 16 12 12 15 16 29 35 32 32 30 32 29 34 31 24 24 23 20 16 18 6 6 7 8 15 11 9 9 7 3 8 11
12 15 14 9 9 12 13 12 8 7 11 20 29 28 32 36 24 36 33 27 29 21 17 19 14 7 6 9 4 10 14 9 8 14 14 1 9 5
15 8 12 7 9 13 10 9 11 6 11 13 21 28 33 31 32 35 21 17 23 17 25 22 13 9 10 8 10 6 11 2 5 14 6 20 12 7
Wind_Direction_500mb
235 251 251 254 267 267 268 268 271 315 308 242 265 247 262 235 238 239 242 233 232 233 232 236 244 255 269 282 282 282 288 301 335 350 338 329 321 309
240 241 238 234 258 264 254 248 268 282 303 311 262 280 276 249 250 234 233 237 228 231 235 238 247 255 260 247 232 218 83 147 1 352 349 346 343 338
230 230 247 242 239 250 261 252 262 271 278 280 254 251 286 252 243 235 233 241 235 233 236 238 246 244 233 218 217 222 228 252 289 316 327 337 344 346
248 243 246 249 267 250 240 247 244 241 247 260 264 265 295 270 219 240 220 228 234 243 230 235 245 237 228 229 235 242 258 271 282 297 311 323 334 342
252 252 249 248 250 245 248 248 258 255 249 278 252 257 256 271 254 225 221 210 216 250 248 244 244 237 233 233 241 256 264 278 284 288 295 308 321 332
252 252 251 246 251 252 252 248 240 242 256 275 253 243 256 253 274 231 214 216 207 228 251 259 244 248 242 238 245 257 257 271 276 279 291 297 308 320
253 252 255 253 249 251 251 252 251 250 258 256 237 240 244 245 249 246 224 222 212 215 225 227 249 247 238 237 248 257 257 268 265 263 271 277 286 301
261 262 255 252 256 260 259 257 257 257 259 237 253 267 256 243 244 251 236 230 211 207 212 225 233 240 246 259 259 231 259 262 259 260 274 279 284 292
264 267 265 260 267 267 264 259 253 250 254 250 259 266 246 240 237 233 237 231 211 216 217 216 224 219 245 249 233 240 271 269 264 269 276 284 286 289
266 271 265 266 266 265 262 264 258 255 260 261 261 259 241 246 238 235 229 219 205 196 218 207 227 225 238 248 276 278 272 271 272 276 278 286 285 288
284 282 270 265 271 276 268 266 269 273 231 252 262 245 253 238 237 230 213 205 202 204 213 201 217 202 218 255 262 298 293 294 294 304 298 292 292 297
283 279 275 273 281 281 283 269 262 270 238 249 251 238 237 229 229 211 205 210 206 206 228 215 211 197 216 217 241 266 294 296 336 324 331 324 326 321
278 278 276 290 289 279 287 283 256 236 252 244 228 233 230 216 199 199 195 208 211 212 200 193 198 214 243 218 220 228 267 290 326 324 329 334 325 330
278 276 272 284 286 292 284 257 216 229 217 202 230 218 206 183 194 197 208 207 215 233 188 183 175 202 217 235 251 229 273 225 300 308 312 320 324 324
224 245 259 282 292 286 281 268 240 238 241 250 243 206 166 180 187 200 207 210 203 187 180 187 194 206 232 232 263 301 218 273 275 277 317 309 312 320
279 264 266 296 321 317 297 306 291 234 225 226 180 154 184 188 194 191 189 194 202 200 197 195 218 221 245 275 276 294 227 292 242 237 306 308 290 276
61 51 61 73 101 66 51 45 33 70 150 155 161 173 187 190 190 187 196 194 195 196 199 230 225 249 253 259 272 278 308 275 302 314 327 291 317 332
62 62 134 131 112 82 45 55 99 139 152 194 185 193 198 195 190 192 195 197 200 208 229 246 246 233 242 240 229 241 282 265 270 307 300 316 322 194
25 355 329 292 248 226 16 349 243 199 215 217 196 206 204 199 199 200 229 197 209 216 238 241 213 227 258 292 218 213 342 291 290 280 291 303 284 256
348 270 265 272 287 287 290 290 275 247 231 211 196 196 207 206 205 237 196 201 220 229 239 215 201 252 294 334 45 269 333 199 236 281 274 285 250 331
338 340 332 310 288 285 289 286 274 250 244 208 197 208 208 210 226 203 197 201 219 217 216 202 214 228 283 304 232 271 310 360 229 220 262 258 255 276
337 341 334 334 314 297 300 306 293 252 232 215 214 213 189 204 210 190 196 222 222 210 188 194 203 230 244 259 179 264 228 339 56 44 26 325 225 246
336 352 325 350 315 310 297 305 301 271 235 223 207 199 209 224 193 194 201 210 187 197 188 186 194 215 248 237 251 207 244 238 254 317 331 23 25 329
Wind_Speed_850mb
19 19 16 12 12 12 12 10 10 19 8 9 10 11 21 27 35 30 32 29 29 27 23 21 18 16 14 11 7 5 5 2 1 3 7 11 15 20
15 19 19 13 14 14 13 12 12 11 14 9 7 10 18 24 28 33 33 29 32 29 27 22 19 13 9 5 3 1 1 1 1 5 12 16 20 22
21 24 26 21 18 16 18 16 16 14 14 10 16 25 20 21 25 31 35 37 35 33 30 24 19 14 9 9 6 5 5 5 6 9 13 17 21 24
29 28 28 25 28 24 26 28 24 23 20 27 21 21 22 22 26 27 32 23 28 29 32 26 21 17 14 12 11 10 11 12 13 16 18 20 23 25
37 37 36 35 36 32 31 27 27 25 26 30 23 17 22 28 24 27 31 27 30 34 22 29 26 22 21 18 17 16 16 15 18 20 21 20 22 24
48 48 46 46 46 42 38 40 38 39 40 30 18 24 32 31 27 27 32 31 31 34 33 30 24 23 26 25 22 21 21 20 22 21 22 22 24 26
50 55 54 54 52 51 47 45 41 48 38 24 25 25 30 37 37 26 33 36 37 30 31 19 21 24 30 29 26 22 21 23 22 23 25 27 27 26
58 53 54 56 58 63 62 60 54 55 49 38 24 29 44 43 45 31 38 35 37 34 26 25 27 19 19 34 24 19 16 23 24 27 27 30 29 27
53 56 55 49 51 54 57 54 53 61 61 41 41 37 49 47 46 36 42 36 26 30 24 28 24 26 18 26 25 22 24 27 30 31 32 33 32 30
61 69 67 60 55 60 57 58 53 55 43 32 43 43 50 51 48 40 33 31 21 20 23 22 24 19 20 23 22 29 33 29 28 30 32 34 30 29
45 47 52 57 52 49 52 53 58 53 37 46 52 46 43 46 38 33 39 41 31 24 28 25 18 13 22 17 19 21 18 16 16 24 28 25 24 27
29 34 43 46 50 48 44 39 47 49 49 47 45 40 39 37 36 38 33 34 30 29 35 31 17 19 15 23 20 16 12 12 19 18 22 17 21 30
27 27 26 35 32 24 18 14 26 30 28 27 34 37 38 29 35 36 30 29 30 29 31 14 18 16 16 17 19 13 7 10 15 17 17 13 18 24
20 28 27 20 17 17 16 16 18 22 24 35 22 30 30 27 23 35 43 39 39 27 18 30 21 17 17 11 14 20 17 7 10 8 11 18 26 20
23 33 32 28 19 19 18 15 20 31 34 39 35 32 30 29 32 31 35 38 34 28 26 37 28 28 14 14 10 14 12 13 7 6 10 16 19 18
10 22 18 7 3 2 4 5 3 3 13 22 27 35 35 33 25 23 31 36 33 31 34 39 25 21 21 14 15 8 8 7 5 4 10 19 15 12
17 11 9 6 6 5 5 4 4 5 6 30 35 37 37 30 25 30 30 33 37 40 33 29 21 22 25 18 13 12 8 4 13 12 16 12 12 13
18 6 4 6 6 5 8 9 3 8 7 15 24 28 28 31 30 31 37 35 34 33 25 13 15 16 16 17 15 6 9 9 9 11 9 7 7 7
11 9 5 5 6 5 1 3 3 15 23 21 24 30 31 32 35 40 28 33 35 27 13 18 17 12 17 24 19 16 3 7 8 5 6 6 3 10
7 8 9 8 12 14 13 12 14 13 23 22 25 29 27 33 39 30 37 34 30 21 21 22 15 8 15 7 4 5 18 2 6 5 5 4 11 13
15 12 12 12 14 18 16 12 12 15 16 29 35 32 32 30 32 29 34 31 24 24 23 20 16 18 6 6 7 8 15 11 9 9 7 3 8 11
12 15 14 9 9 12 13 12 8 7 11 20 29 28 32 36 24 36 33 27 29 21 17 19 14 7 6 9 4 10 14 9 8 14 14 1 9 5
15 8 12 7 9 13 10 9 11 6 11 13 21 28 33 31 32 35 21 17 23 17 25 22 13 9 10 8 10 6 11 2 5 14 6 20 12 7
Wind_Direction_850mb
235 251 251 254 267 267 268 268 271 315 308 242 265 247 262 235 238 239 242 233 232 233 232 236 244 255 269 282 282 282 288 301 335 350 338 329 321 309
240 241 238 234 258 264 254 248 268 282 303 311 262 280 276 249 250 234 233 237 228 231 235 238 247 255 260 247 232 218 83 147 1 352 349 346 343 338
230 230 247 242 239 250 261 252 262 271 278 280 254 251 286 252 243 235 233 241 235 233 236 238 246 244 233 218 217 222 228 252 289 316 327 337 344 346
248 243 246 249 267 250 240 247 244 241 247 260 264 265 295 270 219 240 220 228 234 243 230 235 245 237 228 229 235 242 258 271 282 297 311 323 334 342
252 252 249 248 250 245 248 248 258 255 249 278 252 257 256 271 254 225 221 210 216 250 248 244 244 237 233 233 241 256 264 278 284 288 295 308 321 332
252 252 251 246 251 252 252 248 240 242 256 275 253 243 256 253 274 231 214 216 207 228 251 259 244 248 242 238 245 257 257 271 276 279 291 297 308 320
253 252 255 253 249 251 251 252 251 250 258 256 237 240 244 245 249 246 224 222 212 215 225 227 249 247 238 237 248 257 257 268 265 263 271 277 286 301
261 262 255 252 256 260 259 257 257 257 259 237 253 267 256 243 244 251 236 230 211 207 212 225 233 240 246 259 259 231 259 262 259 260 274 279 284 292
264 267 265 260 267 267 264 259 253 250 254 250 259 266 246 240 237 233 237 231 211 216 217 216 224 219 245 249 233 240 271 269 264 269 276 284 286 289
266 271 265 266 266 265 262 264 258 255 260 261 261 259 241 246 238 235 229 219 205 196 218 207 227 225 238 248 276 278 272 271 272 276 278 286 285 288
284 282 270 265 271 276 268 266 269 273 231 252 262 245 253 238 237 230 213 205 202 204 213 201 217 202 218 255 262 298 293 294 294 304 298 292 292 297
283 279 275 273 281 281 283 269 262 270 238 249 251 238 237 229 229 211 205 210 206 206 228 215 211 197 216 217 241 266 294 296 336 324 331 324 326 321
278 278 276 290 289 279 287 283 256 236 252 244 228 233 230 216 199 199 195 208 211 212 200 193 198 214 243 218 220 228 267 290 326 324 329 334 325 330
278 276 272 284 286 292 284 257 216 229 217 202 230 218 206 183 194 197 208 207 215 233 188 183 175 202 217 235 251 229 273 225 300 308 312 320 324 324
224 245 259 282 292 286 281 268 240 238 241 250 243 206 166 180 187 200 207 210 203 187 180 187 194 206 232 232 263 301 218 273 275 277 317 309 312 320
279 264 266 296 321 317 297 306 291 234 225 226 180 154 184 188 194 191 189 194 202 200 197 195 218 221 245 275 276 294 227 292 242 237 306 308 290 276
61 51 61 73 101 66 51 45 33 70 150 155 161 173 187 190 190 187 196 194 195 196 199 230 225 249 253 259 272 278 308 275 302 314 327 291 317 332
62 62 134 131 112 82 45 55 99 139 152 194 185 193 198 195 190 192 195 197 200 208 229 246 246 233 242 240 229 241 282 265 270 307 300 316 322 194
25 355 329 292 248 226 16 349 243 199 215 217 196 206 204 199 199 200 229 197 209 216 238 241 213 227 258 292 218 213 342 291 290 280 291 303 284 256
348 270 265 272 287 287 290 290 275 247 231 211 196 196 207 206 205 237 196 201 220 229 239 215 201 252 294 334 45 269 333 199 236 281 274 285 250 331
338 340 332 310 288 285 289 286 274 250 244 208 197 208 208 210 226 203 197 201 219 217 216 202 214 228 283 304 232 271 310 360 229 220 262 258 255 276
337 341 334 334 314 297 300 306 293 252 232 215 214 213 189 204 210 190 196 222 222 210 188 194 203 230 244 259 179 264 228 339 56 44 26 325 225 246
336 352 325 350 315 310 297 305 301 271 235 223 207 199 209 224 193 194 201 210 187 197 188 186 194 215 248 237 251 207 244 238 254 317 331 23 25 329